Location: Newark
(44.2700°N, 7.5000°E)
Time: 00:21:41
(UTC+00:00)

ISS - Visible Passes

Search period start: 26 September 2020 00:00
Search period end: 06 October 2020 00:00
Orbit: 419 x 420 km, 51.6° (Epoch: 26 September)

Date Brightness Start Highest point End Pass type
(mag) Time Alt. Az. Time Alt. Az. Time Alt. Az.
26 Sep -1.9 18:10:36 10° WNW 18:13:25 24° N 18:16:14 10° NE visible
26 Sep -1.2 19:47:59 10° NW 19:49:28 20° NNW 19:49:28 20° NNW visible
27 Sep -2.1 19:00:33 10° NW 19:03:23 24° N 19:03:50 23° NNE visible
28 Sep -1.9 18:13:02 10° NW 18:15:47 23° N 18:18:11 12° NE visible
28 Sep -1.1 19:49:56 10° NW 19:51:09 20° NW 19:51:09 20° NW visible
29 Sep -2.6 19:02:33 10° NW 19:05:30 33° NNE 19:05:30 33° NNE visible
30 Sep -2.3 18:15:08 10° NW 18:18:06 27° NNE 18:19:53 17° ENE visible
30 Sep -0.9 19:51:49 10° WNW 19:52:51 18° WNW 19:52:51 18° WNW visible
01 Oct -3.2 19:04:24 10° NW 19:07:15 53° NNW 19:07:15 53° NNW visible
02 Oct -3.1 18:17:00 10° NW 18:20:15 44° NNE 18:21:42 26° E visible
02 Oct -0.6 19:53:57 10° WNW 19:54:40 15° W 19:54:40 15° W visible
03 Oct -2.9 19:06:20 10° WNW 19:09:10 48° WSW 19:09:10 48° WSW visible
04 Oct -3.8 18:18:49 10° WNW 18:22:12 85° SSW 18:23:45 30° SE visible
05 Oct -3.6 17:31:21 10° NW 17:34:42 63° NNE 17:38:03 10° ESE visible
05 Oct -1.6 19:08:41 10° W 19:11:14 20° SW 19:11:24 20° SW visible
